Temp
12 13 14 14 13 13 13 12 12 11 10 9 8 7 7 6 4 3 1 0 -0 1 -0 -0 -0 -0 -0 -0 -1 -1 -1 -1 -2 -1 -1 -1 -3 -4 -5 -5 -6 -6 -6
12 11 13 13 13 13 13 12 11 10 9 8 8 7 6 4 3 2 0 -0 1 -0 -0 0 -0 -0 -1 -1 -1 -1 -1 -1 -2 -1 -2 -2 -3 -4 -5 -6 -6 -6 -7
13 14 14 14 14 13 12 11 10 9 9 8 6 5 3 3 2 1 -0 -1 -0 -1 -1 -0 -0 -0 -0 -1 -1 -1 -1 -2 -2 -2 -3 -3 -3 -4 -5 -6 -6 -7 -7
14 13 13 12 11 10 10 9 8 8 7 7 5 3 2 2 1 -0 -1 -0 -0 -0 -2 -1 -1 -1 -1 -1 -1 -1 -2 -2 -2 -3 -3 -3 -4 -4 -5 -6 -6 -6 -6
12 11 11 10 9 9 9 8 8 7 7 5 4 2 2 0 0 1 -1 -0 -1 -2 -2 -1 -1 -2 -1 -1 -2 -2 -2 -2 -3 -3 -3 -4 -4 -4 -5 -6 -7 -7 -7
11 10 9 9 8 8 8 7 7 6 5 3 3 3 2 1 1 0 -1 -1 -1 -2 -2 -1 -1 -2 -2 -2 -2 -3 -3 -3 -3 -4 -4 -4 -4 -5 -6 -6 -7 -7 -7
9 9 8 7 7 7 6 5 5 4 3 3 2 2 0 0 -0 -0 -1 -2 -3 -2 -2 -2 -2 -1 -2 -3 -3 -3 -4 -4 -4 -5 -5 -5 -5 -6 -6 -7 -7 -7 -8
8 7 6 6 5 5 4 4 3 2 1 1 0 -0 -0 -0 -1 -1 -1 -2 -3 -3 -2 -2 -2 -2 -2 -3 -4 -3 -4 -5 -5 -5 -5 -6 -6 -7 -8 -8 -8 -9 -8
4 4 3 3 2 2 2 1 0 -0 -0 -0 -0 -1 -1 -1 -1 -1 -2 -2 -3 -3 -3 -3 -3 -3 -3 -3 -4 -4 -4 -5 -5 -6 -6 -6 -6 -7 -8 -9 -9 -9 -8
2 2 1 0 0 0 -0 1 0 0 -1 -0 -1 -2 -2 -1 -1 -2 -2 -3 -4 -4 -4 -4 -4 -3 -3 -4 -4 -4 -5 -5 -5 -6 -7 -6 -6 -7 -8 -9 -10 -9 -8
2 2 2 1 1 0 -1 -1 -1 -2 -1 -2 -1 -1 -3 -3 -3 -3 -3 -4 -4 -5 -4 -4 -4 -4 -4 -4 -4 -5 -5 -5 -6 -6 -7 -7 -7 -8 -8 -9 -9 -9 -9
1 1 0 0 0 -0 -0 -1 -1 -2 -2 -3 -3 -3 -4 -4 -4 -5 -5 -5 -5 -5 -5 -5 -5 -5 -5 -5 -5 -5 -5 -6 -6 -6 -7 -8 -7 -8 -8 -8 -8 -9 -9
1 0 0 0 -0 -0 -1 -1 -3 -3 -4 -4 -4 -5 -5 -6 -6 -7 -7 -8 -7 -7 -7 -6 -6 -6 -6 -6 -6 -5 -6 -6 -6 -7 -7 -8 -8 -8 -8 -8 -9 -9 -10
-0 -0 -0 -0 -1 -1 -2 -2 -3 -4 -4 -5 -6 -6 -7 -7 -7 -8 -8 -9 -9 -8 -8 -7 -7 -7 -7 -6 -6 -6 -6 -7 -7 -7 -7 -8 -8 -8 -9 -9 -9 -9 -10
-1 -1 -1 -1 -1 -2 -3 -3 -3 -5 -4 -5 -6 -7 -9 -10 -9 -10 -10 -10 -9 -9 -8 -8 -8 -7 -7 -6 -7 -6 -6 -7 -7 -7 -7 -8 -8 -8 -9 -9 -9 -10 -10
-1 -1 -1 -2 -2 -3 -5 -7 -5 -5 -6 -6 -7 -8 -8 -9 -10 -10 -10 -10 -10 -9 -8 -9 -8 -7 -7 -6 -6 -7 -7 -7 -8 -7 -7 -8 -8 -9 -9 -9 -9 -10 -9
-2 -2 -2 -3 -4 -4 -5 -7 -8 -9 -8 -8 -8 -8 -9 -9 -10 -10 -10 -10 -11 -11 -10 -9 -8 -8 -7 -7 -7 -7 -8 -8 -8 -8 -8 -8 -8 -8 -9 -9 -9 -10 -10
-3 -3 -4 -4 -5 -6 -6 -7 -9 -9 -10 -11 -11 -10 -10 -10 -10 -10 -11 -11 -13 -12 -12 -12 -12 -11 -9 -8 -7 -7 -8 -8 -8 -8 -8 -8 -8 -8 -9 -9 -9 -9 -10
-4 -4 -5 -5 -6 -6 -7 -8 -9 -10 -11 -12 -12 -13 -12 -11 -11 -12 -12 -14 -15 -14 -14 -14 -13 -12 -11 -9 -8 -7 -8 -8 -8 -8 -8 -8 -8 -8 -9 -9 -9 -10 -10
-5 -5 -6 -7 -7 -8 -8 -9 -10 -11 -12 -13 -14 -15 -13 -12 -14 -15 -16 -16 -16 -16 -16 -16 -15 -14 -12 -11 -11 -9 -8 -8 -8 -8 -8 -9 -9 -9 -9 -9 -9 -10 -10
-6 -7 -7 -8 -8 -9 -10 -10 -11 -11 -12 -14 -15 -15 -13 -13 -16 -17 -17 -17 -17 -17 -17 -17 -17 -16 -15 -12 -12 -11 -10 -9 -9 -9 -9 -9 -9 -9 -9 -9 -10 -10 -10
-7 -8 -9 -9 -10 -10 -11 -11 -12 -12 -13 -15 -16 -15 -14 -16 -18 -18 -18 -18 -19 -19 -19 -18 -18 -17 -16 -16 -13 -12 -11 -11 -11 -10 -9 -10 -10 -9 -9 -9 -10 -10 -11
-8 -9 -10 -10 -11 -11 -12 -12 -13 -13 -14 -15 -16 -16 -16 -18 -18 -19 -19 -19 -19 -18 -19 -19 -17 -16 -16 -16 -14 -14 -13 -12 -12 -11 -10 -10 -10 -10 -9 -10 -10 -10 -11
-10 -11 -11 -12 -12 -13 -13 -14 -14 -15 -15 -16 -17 -18 -19 -19 -19 -20 -20 -20 -18 -18 -18 -18 -17 -16 -16 -15 -15 -14 -14 -13 -12 -12 -11 -11 -10 -10 -10 -10 -10 -10 -10
-12 -12 -13 -13 -13 -14 -14 -15 -15 -16 -16 -17 -18 -19 -19 -20 -20 -21 -20 -19 -18 -18 -17 -17 -17 -17 -16 -16 -15 -15 -15 -14 -13 -13 -12 -11 -11 -10 -10 -9 -10 -10 -10
-14 -14 -14 -15 -16 -16 -16 -16 -16 -17 -17 -18 -18 -19 -19 -20 -20 -20 -19 -19 -19 -18 -18 -17 -17 -17 -16 -16 -16 -15 -15 -14 -14 -13 -12 -11 -11 -10 -10 -10 -9 -10 -9
Height
1499 1503 1506 1508 1510 1510 1512 1513 1515 1517 1519 1520 1523 1524 1526 1528 1530 1531 1533 1535 1534 1535 1534 1533 1532 1531 1530 1530 1528 1528 1525 1523 1521 1518 1517 1514 1512 1510 1507 1504 1500 1496 1491
1497 1499 1501 1503 1504 1505 1507 1509 1510 1512 1514 1516 1517 1519 1521 1523 1525 1527 1529 1530 1531 1528 1528 1528 1527 1526 1525 1524 1524 1523 1521 1519 1517 1513 1511 1509 1506 1504 1501 1497 1494 1490 1485
1492 1494 1496 1498 1499 1501 1502 1504 1505 1507 1509 1512 1513 1515 1518 1522 1523 1525 1524 1526 1524 1524 1524 1522 1521 1521 1520 1519 1518 1517 1515 1513 1511 1508 1504 1503 1500 1498 1495 1492 1488 1484 1479
1488 1490 1492 1494 1495 1496 1498 1499 1501 1503 1505 1506 1507 1510 1514 1518 1516 1516 1519 1519 1519 1517 1516 1515 1515 1514 1514 1513 1512 1510 1509 1507 1505 1502 1499 1497 1495 1492 1490 1486 1482 1479 1474
1485 1486 1488 1490 1491 1493 1495 1497 1498 1499 1501 1502 1503 1506 1509 1510 1512 1515 1514 1513 1513 1512 1511 1509 1507 1506 1505 1505 1504 1503 1501 1500 1498 1495 1493 1491 1488 1486 1484 1482 1477 1473 1469
1483 1483 1486 1487 1489 1490 1492 1494 1495 1496 1498 1500 1500 1504 1505 1509 1509 1509 1508 1508 1506 1505 1504 1503 1501 1498 1495 1495 1493 1493 1493 1492 1490 1489 1486 1484 1482 1480 1478 1476 1472 1468 1463
1480 1482 1484 1485 1487 1489 1490 1492 1493 1495 1498 1499 1503 1503 1504 1506 1505 1504 1504 1501 1500 1500 1498 1496 1493 1492 1489 1487 1485 1484 1482 1481 1480 1480 1479 1477 1475 1474 1472 1470 1467 1464 1459
1480 1481 1483 1484 1486 1488 1490 1492 1494 1496 1498 1498 1499 1501 1501 1501 1499 1499 1497 1496 1494 1493 1491 1489 1486 1483 1482 1479 1477 1476 1474 1473 1470 1469 1468 1468 1468 1467 1465 1463 1461 1458 1454
1480 1482 1483 1485 1487 1488 1490 1492 1494 1496 1496 1497 1497 1496 1496 1495 1494 1493 1493 1491 1488 1485 1483 1480 1477 1475 1473 1471 1469 1467 1466 1464 1463 1460 1460 1460 1458 1457 1456 1456 1455 1453 1449
1481 1483 1485 1487 1488 1490 1491 1491 1492 1492 1492 1492 1492 1493 1492 1491 1490 1489 1488 1484 1480 1477 1475 1471 1468 1465 1464 1461 1459 1458 1456 1455 1455 1452 1449 1449 1449 1448 1448 1447 1448 1447 1445
1480 1482 1484 1486 1488 1489 1490 1491 1491 1492 1491 1491 1490 1489 1488 1486 1484 1482 1480 1477 1473 1469 1466 1463 1461 1457 1453 1452 1450 1448 1445 1447 1446 1444 1443 1443 1443 1442 1443 1441 1442 1441 1439
1480 1482 1484 1486 1487 1488 1489 1489 1489 1489 1488 1487 1485 1484 1482 1481 1479 1475 1471 1469 1466 1460 1455 1452 1450 1447 1444 1442 1440 1437 1437 1437 1436 1435 1433 1434 1435 1435 1436 1436 1436 1435 1433
1478 1480 1482 1483 1484 1485 1485 1485 1486 1485 1484 1483 1481 1479 1477 1473 1470 1466 1462 1459 1456 1452 1448 1442 1438 1435 1432 1430 1428 1428 1427 1426 1426 1425 1424 1423 1425 1426 1429 1429 1428 1428 1426
1477 1478 1480 1480 1481 1482 1481 1480 1480 1480 1478 1477 1475 1474 1471 1468 1466 1458 1454 1450 1446 1441 1437 1433 1429 1425 1422 1420 1418 1417 1416 1416 1416 1416 1416 1416 1417 1419 1421 1421 1422 1422 1421
1475 1476 1477 1477 1477 1477 1477 1477 1475 1474 1473 1471 1469 1467 1464 1461 1457 1453 1449 1443 1438 1433 1426 1422 1419 1416 1413 1410 1409 1408 1408 1408 1408 1408 1408 1409 1409 1411 1413 1414 1415 1416 1415
1474 1474 1474 1474 1474 1474 1473 1473 1469 1469 1468 1466 1464 1461 1458 1455 1451 1446 1442 1437 1432 1425 1418 1415 1411 1408 1405 1403 1401 1399 1400 1401 1401 1402 1402 1402 1403 1404 1406 1407 1409 1410 1410
1470 1471 1471 1471 1470 1469 1468 1468 1467 1465 1461 1459 1457 1455 1452 1449 1444 1439 1434 1429 1425 1420 1415 1410 1406 1403 1399 1396 1395 1394 1394 1394 1395 1395 1395 1396 1396 1398 1399 1401 1403 1404 1404
1468 1468 1468 1467 1465 1464 1463 1462 1461 1459 1457 1456 1453 1449 1446 1443 1439 1434 1429 1424 1421 1417 1414 1408 1402 1398 1395 1393 1391 1389 1389 1388 1389 1389 1389 1389 1390 1391 1392 1394 1397 1398 1399
1465 1465 1463 1462 1461 1460 1458 1456 1455 1453 1452 1450 1448 1446 1440 1437 1432 1428 1424 1422 1418 1414 1410 1406 1401 1396 1392 1388 1383 1383 1383 1383 1383 1383 1383 1383 1383 1385 1386 1388 1391 1393 1394
1461 1462 1462 1459 1457 1455 1454 1452 1450 1448 1447 1445 1443 1440 1435 1431 1427 1424 1422 1418 1415 1411 1407 1402 1398 1393 1389 1386 1381 1378 1378 1378 1378 1378 1378 1377 1378 1379 1380 1382 1385 1387 1388
1458 1458 1459 1457 1454 1451 1449 1447 1445 1444 1442 1440 1438 1434 1430 1426 1423 1420 1417 1413 1410 1406 1402 1398 1394 1390 1386 1382 1379 1377 1375 1372 1373 1373 1373 1372 1372 1372 1374 1376 1380 1382 1384
1455 1455 1454 1453 1451 1448 1445 1443 1441 1439 1437 1435 1432 1429 1425 1422 1419 1416 1413 1408 1404 1401 1397 1394 1389 1386 1382 1379 1376 1373 1371 1370 1368 1368 1368 1367 1366 1367 1368 1371 1374 1377 1379
1451 1451 1450 1449 1447 1444 1441 1439 1436 1434 1432 1430 1427 1424 1420 1417 1413 1411 1407 1403 1398 1394 1391 1388 1384 1381 1378 1375 1372 1369 1367 1365 1364 1363 1362 1362 1362 1362 1364 1366 1369 1372 1374
1448 1448 1446 1444 1442 1440 1437 1435 1432 1430 1427 1425 1422 1419 1416 1412 1408 1405 1402 1397 1392 1389 1386 1382 1379 1375 1372 1369 1366 1364 1362 1360 1359 1358 1357 1356 1357 1357 1359 1361 1364 1367 1370
1444 1442 1441 1440 1437 1435 1432 1430 1428 1425 1423 1420 1417 1414 1410 1408 1404 1400 1396 1392 1387 1383 1380 1377 1373 1370 1366 1363 1361 1358 1356 1355 1353 1352 1352 1351 1351 1352 1354 1356 1359 1362 1365
1440 1438 1437 1435 1432 1430 1428 1425 1423 1421 1419 1416 1413 1410 1405 1402 1399 1395 1391 1387 1382 1378 1375 1371 1368 1364 1361 1357 1355 1353 1351 1349 1348 1347 1346 1346 1346 1347 1349 1351 1354 1358 1360
Wind_Speed
18 26 28 25 23 20 18 18 18 20 21 26 27 33 32 28 24 20 11 13 10 19 12 13 13 13 13 14 15 16 17 17 21 22 19 19 20 22 21 22 23 24 24
15 17 15 16 17 19 19 20 21 21 22 26 29 33 31 27 22 17 16 14 15 16 14 16 17 15 16 16 17 19 19 19 22 25 22 21 22 22 22 22 21 22 23
12 14 16 18 21 21 21 21 21 18 17 25 28 29 24 20 16 16 20 15 23 17 18 19 20 20 20 19 20 20 20 20 21 22 24 22 22 21 22 22 21 21 20
13 15 16 17 15 14 14 13 14 14 17 23 27 25 23 20 22 24 20 25 24 24 21 21 23 24 23 22 22 22 21 22 22 22 23 23 21 20 20 22 22 20 21
8 8 9 9 8 9 8 10 12 15 17 20 21 22 24 27 25 25 28 31 28 22 21 22 23 25 27 26 25 23 22 22 22 22 23 22 22 20 20 21 22 20 21
5 5 4 5 6 7 9 11 12 13 14 16 22 27 26 28 31 33 32 34 31 22 22 22 23 26 30 30 30 28 26 24 24 23 24 23 22 20 20 20 20 20 22
5 3 2 3 4 6 7 8 10 11 13 14 21 22 21 27 32 28 29 28 22 21 22 23 23 23 28 26 27 30 29 28 30 26 25 24 22 20 20 20 19 20 22
7 6 5 4 2 1 1 2 3 5 8 9 10 15 20 21 23 22 22 22 23 23 23 23 24 25 25 27 25 27 25 25 27 29 27 23 21 19 18 18 18 20 20
12 11 11 10 8 7 5 3 1 1 6 10 13 17 18 18 17 17 19 24 23 24 23 24 24 24 25 29 33 29 29 29 27 31 30 27 27 27 24 20 18 18 21
13 13 12 10 8 6 2 5 7 8 8 8 8 10 14 17 19 20 22 26 25 26 26 25 26 29 26 29 33 33 31 30 28 27 27 28 27 26 23 22 17 18 19
12 9 6 3 2 2 3 2 2 4 7 9 13 14 16 17 20 23 23 25 26 29 30 30 27 28 31 28 29 34 36 31 27 31 28 22 19 18 18 18 17 18 19
7 6 4 5 4 2 2 4 6 7 9 11 13 15 15 16 19 21 25 26 28 30 33 34 33 33 33 30 29 32 32 33 32 33 33 27 22 20 19 18 18 19 19
8 8 6 3 2 2 3 5 5 7 9 11 13 14 15 16 20 24 23 23 26 30 31 35 38 36 35 36 35 33 31 32 31 32 30 32 30 20 17 17 17 18 18
9 6 4 1 2 4 5 6 7 10 11 13 13 14 16 16 17 23 28 30 31 33 32 33 35 37 37 31 35 35 29 27 27 29 30 28 28 21 17 16 15 16 16
7 5 2 1 2 4 6 8 9 10 14 15 15 16 16 16 21 25 27 29 32 36 37 36 36 33 30 28 29 26 25 21 21 22 24 27 28 22 19 15 16 15 16
5 3 0 2 4 4 5 5 14 12 13 14 15 17 19 21 24 26 28 29 31 32 28 24 28 29 31 29 28 20 18 18 19 19 23 27 26 22 20 16 16 15 15
4 1 2 3 5 6 7 7 7 10 17 18 19 19 22 23 26 27 28 29 25 27 18 17 19 23 23 21 24 20 20 18 18 17 21 21 25 25 23 18 16 15 14
2 2 3 5 6 7 8 9 9 10 12 12 15 21 23 23 24 24 26 25 21 19 19 20 21 21 22 22 22 20 17 17 17 18 18 20 21 24 23 19 17 16 14
1 4 5 6 7 8 10 10 11 12 13 13 15 15 21 24 25 22 21 17 19 19 19 19 20 21 21 20 13 19 18 15 15 17 18 17 18 24 22 18 16 16 14
3 6 7 7 8 9 11 11 12 13 14 13 14 16 22 26 21 19 18 17 17 18 19 20 20 20 20 21 20 6 6 14 13 14 16 18 18 23 21 18 18 17 12
5 7 8 8 9 10 11 12 13 14 15 14 14 17 22 23 18 17 17 17 17 18 19 19 20 20 19 19 19 18 15 7 9 12 14 17 17 23 22 18 19 17 13
6 7 8 9 10 11 11 13 14 15 15 14 16 18 22 18 17 17 17 17 18 18 18 19 21 20 20 20 20 19 18 17 9 9 12 16 13 20 21 18 20 18 13
8 8 9 10 11 12 12 13 14 15 16 16 18 19 19 18 19 18 18 18 19 21 20 21 21 22 21 20 20 19 19 18 17 14 14 13 16 18 21 20 21 18 15
9 9 10 11 12 12 13 14 15 16 17 17 18 17 18 19 18 19 19 20 22 22 22 23 24 22 21 22 21 20 20 20 19 18 15 15 15 16 22 21 21 19 16
10 11 11 12 13 13 13 14 15 16 16 17 17 17 18 19 19 19 19 22 23 24 25 25 23 22 23 22 21 20 20 20 18 16 16 15 15 16 22 22 21 20 18
12 12 13 13 12 13 14 15 15 16 17 17 18 18 19 19 20 21 23 23 24 26 25 23 22 21 21 21 20 18 18 19 17 14 14 14 14 15 19 23 23 23 21
Wind_Direction
223 222 241 250 258 269 267 266 263 260 258 256 245 241 243 240 240 251 217 222 234 287 273 260 263 261 265 271 272 276 274 272 275 285 284 287 283 280 282 288 290 294 298
208 214 237 248 250 252 256 256 251 248 256 246 242 244 241 236 241 241 233 218 261 292 259 261 263 263 265 269 270 272 272 272 274 280 284 284 282 280 283 287 291 292 295
210 224 237 246 249 250 257 259 256 254 255 249 239 239 227 236 231 227 215 237 295 287 269 262 262 263 264 269 269 270 272 274 272 276 282 284 283 282 285 286 290 294 299
216 227 240 249 254 261 265 267 249 242 248 248 241 234 226 228 231 219 246 273 289 294 275 266 262 258 262 266 268 268 270 272 273 275 280 284 283 283 282 289 294 293 298
222 230 244 244 243 245 246 243 245 247 248 240 238 224 234 241 230 269 265 274 283 284 276 272 265 259 259 263 261 264 267 270 272 275 279 280 281 282 282 287 289 295 299
204 209 223 229 235 243 249 251 258 256 248 235 235 234 255 242 254 278 270 286 284 280 278 276 271 271 266 264 265 263 264 262 265 271 274 276 278 280 283 286 287 294 299
144 152 175 210 242 259 264 267 263 253 248 265 253 272 254 260 277 285 282 276 280 279 280 279 277 271 267 263 267 262 265 267 267 265 264 269 273 275 279 280 283 286 291
119 122 127 138 152 182 205 293 298 268 273 267 253 259 275 285 285 281 279 279 283 282 281 280 277 274 267 265 261 258 259 262 263 264 261 263 265 268 271 274 278 286 291
111 111 107 102 100 91 74 39 2 246 275 271 272 279 284 284 284 286 282 287 284 283 283 282 278 276 273 264 261 258 263 260 254 257 261 259 268 272 273 266 270 281 289
107 105 103 100 99 103 123 285 292 284 282 285 293 286 283 287 288 291 293 294 286 285 286 284 284 284 286 273 265 263 261 266 260 252 259 255 262 265 266 262 262 271 283
118 114 101 72 29 21 46 46 341 317 306 300 300 297 295 293 292 292 293 292 292 292 288 284 280 281 287 284 273 266 264 268 268 275 247 248 249 249 252 262 260 263 275
113 115 111 112 103 72 19 336 328 319 311 308 306 306 305 304 302 299 296 291 289 287 287 285 281 279 283 284 277 271 267 268 269 272 256 241 239 239 248 251 254 259 266
141 135 127 111 64 345 340 330 336 327 319 314 315 313 310 304 307 311 312 302 294 294 293 291 286 285 282 271 270 269 268 267 267 263 253 248 244 239 244 249 249 256 267
144 143 138 129 18 338 338 329 326 321 320 321 320 317 316 315 316 294 305 311 306 300 292 291 288 290 291 289 271 275 268 268 261 262 255 249 244 231 235 246 252 258 270
154 154 157 313 338 341 328 318 321 316 322 321 315 317 318 318 309 314 313 315 316 312 304 296 289 286 285 287 279 272 269 265 264 260 254 251 242 234 239 241 244 252 263
163 170 220 323 326 336 333 343 323 328 327 325 322 319 317 314 315 315 314 314 319 323 309 294 295 289 287 282 262 256 263 268 263 263 256 249 243 236 236 236 239 246 260
168 196 305 328 335 337 340 337 334 326 333 334 330 327 323 325 324 323 321 323 327 335 316 317 313 301 300 286 269 261 277 276 267 270 256 253 249 242 235 231 235 240 255
192 315 332 333 335 337 336 337 335 329 330 327 324 326 324 328 327 327 326 329 331 335 338 337 329 325 307 295 281 269 265 267 265 259 261 251 246 242 232 232 232 237 248
307 321 325 328 332 335 337 336 333 332 330 329 326 325 321 332 334 334 335 337 333 332 328 331 334 331 326 315 314 272 274 267 266 271 267 258 247 233 229 229 226 231 237
327 326 330 331 330 333 332 332 332 332 331 326 325 323 327 333 337 337 337 334 329 326 326 325 324 325 329 328 322 307 297 276 271 273 265 263 249 234 228 224 222 224 240
326 324 322 322 324 327 328 329 328 327 325 322 320 322 328 329 330 329 329 328 325 324 323 321 321 320 318 321 323 318 295 281 288 281 275 272 256 238 228 222 220 218 224
318 315 314 314 317 320 322 323 323 322 321 319 319 321 325 327 324 323 322 321 322 322 320 318 316 316 316 313 313 314 308 301 292 266 280 283 272 236 226 215 213 216 218
315 311 308 310 312 315 318 319 319 318 318 319 319 321 323 322 322 321 318 319 320 321 321 319 317 313 311 309 305 303 301 296 292 289 278 267 275 243 220 212 211 213 215
309 305 305 306 309 312 315 317 315 315 317 317 317 318 319 319 319 318 318 318 321 321 320 320 318 314 309 306 305 300 292 287 282 279 281 272 254 249 220 215 214 215 214
306 306 305 305 308 311 312 312 314 315 315 315 315 317 319 318 319 318 318 321 323 322 322 321 319 315 311 308 305 299 289 284 278 275 273 272 244 242 223 218 216 214 212
306 305 304 306 307 307 308 310 312 312 313 315 317 317 319 319 319 319 322 324 324 323 323 324 321 318 314 311 308 300 289 281 274 266 268 265 248 235 224 217 218 220 221